Kezdőlap
METAR-TAF:

METAR-TAF

Repülőterek :

Lac Qui Parle County Airport

Madison, Minnesota, Amerikai Egyesült Államok

földrajzi szélesség: 44-59-10N, földrajzi hosszúság: 096-10-40W, magasság: 330 m

Jelenlegi meteorológiai megfigyelések

A jelentés 25 perccel ezelõtt készült, 17:15 UTC
Dél-délnyugati szél 7 kt
Hőmérséklet 3°C
Páratartalom 75%
Légköri nyomás 1015 hPa
Látótávolság: 16.1 km
Derült ég

METAR: KDXX 081715Z AUTO 20007KT 10SM CLR 03/M01 A2998 RMK AO2

Idő: 11:40 (17:40 UTC)


TAF: hiányzik

Meteorológiai megfigyelések és előrejelzések több, mint 4000 repülőtéren (METAR és TAF jelentéseket).

A térképen piros és sárga pontok jelzik az elérhető meteorológiai állomásokat.

Mozgassa az egeret a pont fölött, hogy megjelenjen az állomás neve.

Azután kattintson az időjárási megfigyelések és előrejelzések megtekintéséhez.

A térkép megváltoztatása: kattintson a fekete keresztel jelölt zöld gombra ráközelítéshez, a vonallal jelölt zöld gombra távolításhoz, vagy a zöld nyilakra a szomszédos térképek eléréséhez.


METAR-TAF: